Location: La Fredeussais
(48.1780°N, 1.3980°W)
Time: 05:32:43
(UTC+00:00)

STARLINK-2695 - Pass Details

Date: 04 December 2021
Orbit: 546 x 548 km, 53.1° (Epoch: 25 January)

Event Time Altitude Azimuth Distance (km) Brightness Sun altitude
Rises 17:57:43 0° 268° (W) 2,717 8.8 -16.7°
Reaches altitude 10° 18:00:01 10° 274° (W) 1,824 7.4 -17.1°
Maximum altitude 18:04:01 46° 349° (N) 741 4.2 -17.7°
Enters shadow 18:05:20 34° 38° (NE) 923 4.3 -18.0°
